date,City,No. Stations,Air Quality,Index Value,Prominent Pollutant
2019-01-09,Kurukshetra,1.0,Moderate,186,PM2.5
2019-01-10,Kurukshetra,1.0,Poor,206,PM2.5
2019-01-11,Kurukshetra,1.0,Very Poor,315,PM2.5
2019-01-12,Kurukshetra,1.0,Very Poor,302,PM2.5
2019-01-13,Kurukshetra,1.0,Poor,247,PM2.5
2019-01-14,Kurukshetra,1.0,Moderate,130,PM2.5
2019-01-15,Kurukshetra,1.0,Moderate,115,PM2.5
2019-01-16,Kurukshetra,1.0,Poor,239,PM2.5
2019-01-17,Kurukshetra,1.0,Very Poor,339,PM2.5
2019-01-18,Kurukshetra,1.0,Very Poor,313,PM2.5
2019-01-19,Kurukshetra,1.0,Poor,246,PM2.5
2019-01-20,Kurukshetra,1.0,Poor,283,PM2.5
2019-01-21,Kurukshetra,1.0,Very Poor,318,PM2.5
2019-01-23,Kurukshetra,1.0,Satisfactory,57,OZONE
2019-01-24,Kurukshetra,1.0,Moderate,126,PM2.5
2019-01-25,Kurukshetra,1.0,Satisfactory,89,PM10
2019-01-26,Kurukshetra,1.0,Moderate,155,PM2.5
2019-01-27,Kurukshetra,1.0,Moderate,116,PM2.5
2019-01-28,Kurukshetra,1.0,Satisfactory,93,PM2.5
2019-01-29,Kurukshetra,1.0,Moderate,126,PM2.5
2019-01-30,Kurukshetra,1.0,Moderate,164,PM2.5
2019-01-31,Kurukshetra,1.0,Poor,290,PM2.5
2019-02-01,Kurukshetra,1.0,Poor,228,PM2.5
2019-02-02,Kurukshetra,1.0,Poor,261,PM2.5
2019-02-03,Kurukshetra,1.0,Moderate,153,PM2.5
2019-02-04,Kurukshetra,1.0,Moderate,196,PM2.5
2019-02-05,Kurukshetra,1.0,Poor,228,PM2.5
2019-02-06,Kurukshetra,1.0,Poor,264,PM2.5
2019-02-07,Kurukshetra,1.0,Moderate,200,PM2.5
2019-02-08,Kurukshetra,1.0,Satisfactory,56,PM10
2019-02-09,Kurukshetra,1.0,Satisfactory,94,PM10
2019-02-10,Kurukshetra,1.0,Moderate,119,PM10
2019-02-11,Kurukshetra,1.0,Moderate,150,PM2.5
2019-02-12,Kurukshetra,1.0,Moderate,152,PM2.5
2019-02-13,Kurukshetra,1.0,Poor,229,PM2.5
2019-02-14,Kurukshetra,1.0,Very Poor,315,PM2.5
2019-02-15,Kurukshetra,1.0,Satisfactory,70,PM10
2019-02-16,Kurukshetra,1.0,Moderate,173,PM2.5
2019-02-17,Kurukshetra,1.0,Satisfactory,86,PM2.5
2019-02-18,Kurukshetra,1.0,Moderate,125,PM2.5
2019-02-19,Kurukshetra,1.0,Satisfactory,73,OZONE
2019-02-20,Kurukshetra,1.0,Moderate,111,PM10
2019-02-21,Kurukshetra,1.0,Satisfactory,64,PM10
2019-02-22,Kurukshetra,1.0,Moderate,103,PM10
2019-02-23,Kurukshetra,1.0,Satisfactory,85,OZONE
2019-02-24,Kurukshetra,1.0,Satisfactory,97,OZONE
2019-02-25,Kurukshetra,1.0,Satisfactory,100,PM10
2019-02-26,Kurukshetra,1.0,Satisfactory,99,PM10
2019-02-27,Kurukshetra,1.0,Satisfactory,86,OZONE
2019-02-28,Kurukshetra,1.0,Satisfactory,75,OZONE
2019-03-01,Kurukshetra,1.0,Satisfactory,90,PM10
2019-03-02,Kurukshetra,1.0,Moderate,108,PM2.5
2019-03-03,Kurukshetra,1.0,Moderate,109,PM2.5
2019-03-04,Kurukshetra,1.0,Satisfactory,69,PM10
2019-03-05,Kurukshetra,1.0,Satisfactory,67,OZONE
2019-03-06,Kurukshetra,1.0,Satisfactory,89,OZONE
2019-03-07,Kurukshetra,1.0,Satisfactory,88,OZONE
2019-03-08,Kurukshetra,1.0,Satisfactory,90,PM10
2019-03-09,Kurukshetra,1.0,Moderate,116,PM2.5
2019-03-10,Kurukshetra,1.0,Moderate,105,OZONE
2019-03-11,Kurukshetra,1.0,Moderate,124,PM10
2019-03-12,Kurukshetra,1.0,Satisfactory,88,OZONE
2019-03-13,Kurukshetra,1.0,Moderate,134,PM10
2019-03-14,Kurukshetra,1.0,Moderate,124,PM10
2019-03-15,Kurukshetra,1.0,Satisfactory,82,OZONE
2019-03-16,Kurukshetra,1.0,Satisfactory,90,OZONE
2019-03-17,Kurukshetra,1.0,Moderate,103,OZONE
2019-03-18,Kurukshetra,1.0,Moderate,102,PM10
2019-03-19,Kurukshetra,1.0,Moderate,108,PM10
2019-03-20,Kurukshetra,1.0,Moderate,121,PM10
2019-03-21,Kurukshetra,1.0,Moderate,102,PM10
2019-03-22,Kurukshetra,1.0,Satisfactory,85,PM10
2019-03-23,Kurukshetra,1.0,Satisfactory,96,PM10
2019-03-24,Kurukshetra,1.0,Satisfactory,96,PM10
2019-03-25,Kurukshetra,1.0,Moderate,103,PM10
2019-03-26,Kurukshetra,1.0,Moderate,107,PM10
2019-03-27,Kurukshetra,1.0,Moderate,117,PM10
2019-03-28,Kurukshetra,1.0,Moderate,117,PM10
2019-03-29,Kurukshetra,1.0,Moderate,114,PM10
2019-03-30,Kurukshetra,1.0,Moderate,129,PM10
2019-03-31,Kurukshetra,1.0,Moderate,127,PM10
2019-04-01,Kurukshetra,1.0,Moderate,112,PM10
2019-04-02,Kurukshetra,1.0,Moderate,131,PM10
2019-04-03,Kurukshetra,1.0,Moderate,118,PM10
2019-04-04,Kurukshetra,1.0,Moderate,137,PM10
2019-04-05,Kurukshetra,1.0,Moderate,145,PM10
2019-04-06,Kurukshetra,1.0,Moderate,148,PM10
2019-04-07,Kurukshetra,1.0,Moderate,165,PM10
2019-04-08,Kurukshetra,1.0,Poor,229,PM10
2019-04-09,Kurukshetra,1.0,Moderate,120,PM10
2019-04-10,Kurukshetra,1.0,Moderate,119,PM10
2019-04-11,Kurukshetra,1.0,Moderate,134,PM10
2019-04-12,Kurukshetra,1.0,Moderate,182,PM10
2019-04-13,Kurukshetra,1.0,Moderate,120,PM10
2019-04-14,Kurukshetra,1.0,Moderate,113,PM10
2019-04-15,Kurukshetra,1.0,Moderate,112,PM10
2019-04-16,Kurukshetra,1.0,Moderate,134,PM10
2019-04-17,Kurukshetra,1.0,Satisfactory,99,PM10
2019-04-18,Kurukshetra,1.0,Satisfactory,61,OZONE
2019-04-19,Kurukshetra,1.0,Satisfactory,73,OZONE
2019-04-20,Kurukshetra,1.0,Satisfactory,89,OZONE
2019-04-21,Kurukshetra,1.0,Moderate,116,PM10
2019-04-22,Kurukshetra,1.0,Moderate,101,PM10
2019-04-23,Kurukshetra,1.0,Moderate,140,PM10
2019-04-24,Kurukshetra,1.0,Moderate,179,OZONE
2019-04-25,Kurukshetra,1.0,Moderate,184,PM10
2019-04-26,Kurukshetra,1.0,Moderate,122,OZONE
2019-04-27,Kurukshetra,1.0,Moderate,166,OZONE
2019-04-28,Kurukshetra,1.0,Moderate,195,PM10
2019-04-29,Kurukshetra,1.0,Moderate,194,OZONE
2019-04-30,Kurukshetra,1.0,Moderate,149,PM10
2019-05-01,Kurukshetra,1.0,Moderate,139,PM10
2019-05-02,Kurukshetra,1.0,Moderate,126,PM10
2019-05-03,Kurukshetra,1.0,Satisfactory,76,PM10
2019-05-04,Kurukshetra,1.0,Moderate,116,PM10
2019-05-05,Kurukshetra,1.0,Moderate,131,PM10
2019-05-06,Kurukshetra,1.0,Moderate,150,PM10
2019-05-07,Kurukshetra,1.0,Moderate,129,PM10
2019-05-08,Kurukshetra,1.0,Moderate,154,PM10
2019-05-09,Kurukshetra,1.0,Moderate,172,PM10
2019-05-10,Kurukshetra,1.0,Poor,274,PM10
2019-05-11,Kurukshetra,1.0,Moderate,107,PM10
2019-05-12,Kurukshetra,1.0,Poor,221,PM10
2019-05-13,Kurukshetra,1.0,Moderate,109,PM10
2019-05-14,Kurukshetra,1.0,Moderate,106,PM10
2019-05-15,Kurukshetra,1.0,Moderate,117,PM10
2019-05-16,Kurukshetra,1.0,Moderate,167,PM10
2019-05-17,Kurukshetra,1.0,Poor,222,PM10
2019-05-18,Kurukshetra,1.0,Moderate,110,PM10
2019-05-19,Kurukshetra,1.0,Moderate,136,PM10
2019-05-20,Kurukshetra,1.0,Moderate,162,PM10
2019-05-21,Kurukshetra,1.0,Moderate,140,PM10
2019-05-22,Kurukshetra,1.0,Moderate,147,PM10
2019-05-23,Kurukshetra,1.0,Moderate,182,PM10
2019-05-24,Kurukshetra,1.0,Moderate,117,PM10
2019-05-25,Kurukshetra,1.0,Satisfactory,91,PM10
2019-05-26,Kurukshetra,1.0,Moderate,105,PM10
2019-05-27,Kurukshetra,1.0,Moderate,112,PM10
2019-05-28,Kurukshetra,1.0,Moderate,107,PM10
2019-05-29,Kurukshetra,1.0,Moderate,117,PM10
2019-05-30,Kurukshetra,1.0,Moderate,143,PM10
2019-05-31,Kurukshetra,1.0,Moderate,148,PM10
2019-06-01,Kurukshetra,1.0,Moderate,168,PM10
2019-06-02,Kurukshetra,1.0,Moderate,157,PM10
2019-06-03,Kurukshetra,1.0,Moderate,171,PM10
2019-06-04,Kurukshetra,1.0,Moderate,138,PM10
2019-06-05,Kurukshetra,1.0,Moderate,141,PM10
2019-06-06,Kurukshetra,1.0,Moderate,164,PM10
2019-06-07,Kurukshetra,1.0,Moderate,105,PM10
2019-06-08,Kurukshetra,1.0,Moderate,124,PM10
2019-06-09,Kurukshetra,1.0,Moderate,120,PM10
2019-06-10,Kurukshetra,1.0,Moderate,131,PM10
2019-06-11,Kurukshetra,1.0,Moderate,158,PM10
2019-06-12,Kurukshetra,1.0,Moderate,120,PM10
2019-06-13,Kurukshetra,1.0,Moderate,142,PM10
2019-06-14,Kurukshetra,1.0,Moderate,166,PM10
2019-06-15,Kurukshetra,1.0,Moderate,145,PM10
2019-06-16,Kurukshetra,1.0,Moderate,161,PM10
2019-06-17,Kurukshetra,1.0,Moderate,125,PM10
2019-06-18,Kurukshetra,1.0,Satisfactory,89,PM10
2019-06-19,Kurukshetra,1.0,Moderate,125,PM10
2019-06-20,Kurukshetra,1.0,Moderate,191,PM10
2019-06-21,Kurukshetra,1.0,Moderate,113,PM10
2019-06-22,Kurukshetra,1.0,Moderate,116,PM10
2019-06-23,Kurukshetra,1.0,Satisfactory,96,PM10
2019-06-24,Kurukshetra,1.0,Satisfactory,81,PM10
2019-06-25,Kurukshetra,1.0,Satisfactory,62,PM10
2019-06-26,Kurukshetra,1.0,Satisfactory,95,PM10
2019-06-27,Kurukshetra,1.0,Moderate,176,PM10
2019-06-28,Kurukshetra,1.0,Moderate,116,PM10
2019-06-29,Kurukshetra,1.0,Moderate,173,PM10
2019-06-30,Kurukshetra,1.0,Moderate,175,PM10
2019-07-01,Kurukshetra,1.0,Moderate,121,PM10
2019-07-02,Kurukshetra,1.0,Moderate,132,PM10
2019-07-03,Kurukshetra,1.0,Moderate,112,PM10
2019-07-04,Kurukshetra,1.0,Satisfactory,79,PM10
2019-07-05,Kurukshetra,1.0,Satisfactory,57,PM10
2019-07-06,Kurukshetra,1.0,Satisfactory,66,PM10
2019-07-07,Kurukshetra,1.0,Satisfactory,62,PM10
2019-07-08,Kurukshetra,1.0,Satisfactory,64,PM10
2019-07-09,Kurukshetra,1.0,Satisfactory,96,PM10
2019-07-10,Kurukshetra,1.0,Good,45,PM10
2019-07-11,Kurukshetra,1.0,Moderate,154,PM10
2019-07-12,Kurukshetra,1.0,Satisfactory,88,PM10
2019-07-13,Kurukshetra,1.0,Moderate,195,PM10
2019-07-14,Kurukshetra,1.0,Moderate,143,PM10
2019-07-15,Kurukshetra,1.0,Satisfactory,79,PM10
2019-07-16,Kurukshetra,1.0,Satisfactory,90,PM10
2019-07-17,Kurukshetra,1.0,Good,46,PM10
2019-07-18,Kurukshetra,1.0,Satisfactory,87,PM10
2019-07-19,Kurukshetra,1.0,Satisfactory,92,PM10
2019-07-20,Kurukshetra,1.0,Satisfactory,80,PM10
2019-07-21,Kurukshetra,1.0,Satisfactory,76,PM10
2019-07-22,Kurukshetra,1.0,Satisfactory,75,PM10
2019-07-23,Kurukshetra,1.0,Satisfactory,90,PM10
2019-07-24,Kurukshetra,1.0,Satisfactory,97,PM10
2019-07-25,Kurukshetra,1.0,Satisfactory,72,PM10
2019-07-26,Kurukshetra,1.0,Good,44,PM10
2019-07-27,Kurukshetra,1.0,Good,31,OZONE
2019-07-28,Kurukshetra,1.0,Good,33,PM10
2019-07-29,Kurukshetra,1.0,Good,32,OZONE
2019-07-30,Kurukshetra,1.0,Good,44,PM10
2019-07-31,Kurukshetra,1.0,Satisfactory,51,PM10
2019-08-01,Kurukshetra,1.0,Good,50,PM10
2019-08-02,Kurukshetra,1.0,Satisfactory,52,PM10
2019-08-03,Kurukshetra,1.0,Good,40,PM10
2019-08-04,Kurukshetra,1.0,Good,47,PM10
2019-08-05,Kurukshetra,1.0,Satisfactory,54,PM10
2019-08-06,Kurukshetra,1.0,Satisfactory,52,PM10
2019-08-07,Kurukshetra,1.0,Satisfactory,53,PM10
2019-08-08,Kurukshetra,1.0,Satisfactory,54,PM10
2019-08-09,Kurukshetra,1.0,Satisfactory,51,PM10
2019-08-10,Kurukshetra,1.0,Good,39,PM10
2019-08-11,Kurukshetra,1.0,Satisfactory,55,PM10
2019-08-12,Kurukshetra,1.0,Satisfactory,66,PM10
2019-08-14,Kurukshetra,1.0,Good,45,PM10
2019-08-15,Kurukshetra,1.0,Satisfactory,53,PM10
2019-08-16,Kurukshetra,1.0,Good,39,PM10
2019-08-17,Kurukshetra,1.0,Good,34,PM10
2019-08-18,Kurukshetra,1.0,Good,22,NO2
2019-08-19,Kurukshetra,1.0,Good,24,OZONE
2019-08-20,Kurukshetra,1.0,Good,41,PM10
2019-08-21,Kurukshetra,1.0,Satisfactory,67,PM10
2019-08-22,Kurukshetra,1.0,Satisfactory,96,PM10
2019-08-23,Kurukshetra,1.0,Moderate,114,PM10
2019-08-24,Kurukshetra,1.0,Moderate,101,PM10
2019-08-25,Kurukshetra,1.0,Satisfactory,69,PM10
2019-08-26,Kurukshetra,1.0,Good,40,PM10
2019-08-27,Kurukshetra,1.0,Satisfactory,51,PM10
2019-08-28,Kurukshetra,1.0,Satisfactory,77,PM10
2019-08-29,Kurukshetra,1.0,Satisfactory,82,PM10
2019-08-30,Kurukshetra,1.0,Satisfactory,72,PM10
2019-08-31,Kurukshetra,1.0,Satisfactory,82,PM10
2019-09-01,Kurukshetra,1.0,Satisfactory,77,PM10
2019-09-02,Kurukshetra,1.0,Satisfactory,57,PM10
2019-09-03,Kurukshetra,1.0,Moderate,101,PM2.5
2019-09-04,Kurukshetra,1.0,Satisfactory,91,PM10
2019-09-05,Kurukshetra,1.0,Satisfactory,66,PM10
2019-09-06,Kurukshetra,1.0,Satisfactory,61,PM10
2019-09-07,Kurukshetra,1.0,Satisfactory,53,PM10
2019-09-08,Kurukshetra,1.0,Satisfactory,68,PM2.5
2019-09-09,Kurukshetra,1.0,Satisfactory,99,PM2.5
2019-09-10,Kurukshetra,1.0,Moderate,101,PM10
2019-09-11,Kurukshetra,1.0,Moderate,123,PM10
2019-09-12,Kurukshetra,1.0,Moderate,146,PM2.5
2019-09-13,Kurukshetra,1.0,Satisfactory,74,PM10
2019-09-14,Kurukshetra,1.0,Satisfactory,74,PM2.5
2019-09-15,Kurukshetra,1.0,Good,49,PM10
2019-09-16,Kurukshetra,1.0,Satisfactory,69,PM10
2019-09-17,Kurukshetra,1.0,Moderate,104,PM10
2019-09-18,Kurukshetra,1.0,Satisfactory,98,PM10
2019-09-19,Kurukshetra,1.0,Satisfactory,53,PM10
2019-09-20,Kurukshetra,1.0,Satisfactory,58,PM10
2019-09-21,Kurukshetra,1.0,Satisfactory,78,PM10
2019-09-22,Kurukshetra,1.0,Satisfactory,77,PM10
2019-09-23,Kurukshetra,1.0,Good,47,PM10
2019-09-24,Kurukshetra,1.0,Satisfactory,78,PM10
2019-09-25,Kurukshetra,1.0,Satisfactory,81,PM10
2019-09-26,Kurukshetra,1.0,Satisfactory,73,PM10
2019-09-27,Kurukshetra,1.0,Satisfactory,81,PM10
2019-09-28,Kurukshetra,1.0,Satisfactory,53,PM10
2019-09-29,Kurukshetra,1.0,Good,37,PM10
2019-09-30,Kurukshetra,1.0,Good,36,PM10
2019-10-01,Kurukshetra,1.0,Good,46,PM10
2019-10-02,Kurukshetra,1.0,Satisfactory,76,PM10
2019-10-03,Kurukshetra,1.0,Moderate,104,PM10
2019-10-04,Kurukshetra,1.0,Satisfactory,95,PM10
2019-10-05,Kurukshetra,1.0,Satisfactory,76,PM10
2019-10-06,Kurukshetra,1.0,Satisfactory,95,PM10
2019-10-07,Kurukshetra,1.0,Moderate,117,PM10
2019-10-08,Kurukshetra,1.0,Satisfactory,98,PM10
2019-10-09,Kurukshetra,1.0,Moderate,131,PM2.5
2019-10-10,Kurukshetra,1.0,Moderate,142,PM10
2019-10-11,Kurukshetra,1.0,Moderate,134,PM10
2019-10-12,Kurukshetra,1.0,Moderate,190,PM2.5
2019-10-13,Kurukshetra,1.0,Moderate,188,PM2.5
2019-10-14,Kurukshetra,1.0,Poor,202,PM2.5
2019-10-15,Kurukshetra,1.0,Poor,290,PM2.5
2019-10-16,Kurukshetra,1.0,Poor,274,PM2.5
2019-10-17,Kurukshetra,1.0,Moderate,198,PM2.5
2019-10-18,Kurukshetra,1.0,Moderate,157,PM2.5
2019-10-19,Kurukshetra,1.0,Moderate,179,PM2.5
2019-10-20,Kurukshetra,1.0,Poor,228,PM2.5
2019-10-21,Kurukshetra,1.0,Poor,219,PM2.5
2019-10-22,Kurukshetra,1.0,Poor,230,PM2.5
2019-10-23,Kurukshetra,1.0,Poor,238,PM2.5
2019-10-24,Kurukshetra,1.0,Poor,255,PM2.5
2019-10-25,Kurukshetra,1.0,Poor,247,PM2.5
2019-10-26,Kurukshetra,1.0,Poor,233,PM2.5
2019-10-27,Kurukshetra,1.0,Very Poor,337,PM2.5
2019-10-28,Kurukshetra,1.0,Very Poor,392,PM2.5
2019-10-29,Kurukshetra,1.0,Very Poor,369,PM2.5
2019-10-30,Kurukshetra,1.0,Very Poor,390,PM2.5
2019-10-31,Kurukshetra,1.0,Severe,418,PM2.5
2019-11-01,Kurukshetra,1.0,Very Poor,383,PM2.5
2019-11-02,Kurukshetra,1.0,Very Poor,381,PM2.5
2019-11-03,Kurukshetra,1.0,Severe,442,PM2.5
2019-11-04,Kurukshetra,1.0,Very Poor,365,PM2.5
2019-11-05,Kurukshetra,1.0,Poor,296,PM2.5
2019-11-06,Kurukshetra,1.0,Very Poor,387,PM2.5
2019-11-07,Kurukshetra,1.0,Moderate,195,PM2.5
2019-11-08,Kurukshetra,1.0,Moderate,116,PM2.5
2019-11-09,Kurukshetra,1.0,Moderate,123,PM2.5
2019-11-10,Kurukshetra,1.0,Very Poor,322,PM2.5
2019-11-11,Kurukshetra,1.0,Very Poor,320,PM2.5
2019-11-12,Kurukshetra,1.0,Very Poor,358,PM2.5
2019-11-13,Kurukshetra,1.0,Very Poor,321,PM2.5
2019-11-14,Kurukshetra,1.0,Very Poor,316,PM2.5
2019-11-15,Kurukshetra,1.0,Very Poor,337,PM2.5
2019-11-16,Kurukshetra,1.0,Moderate,195,PM2.5
2019-11-17,Kurukshetra,1.0,Satisfactory,93,PM10
2019-11-18,Kurukshetra,1.0,Moderate,130,PM2.5
2019-11-19,Kurukshetra,1.0,Poor,213,PM2.5
2019-11-20,Kurukshetra,1.0,Very Poor,305,PM2.5
2019-11-21,Kurukshetra,1.0,Poor,263,PM2.5
2019-11-22,Kurukshetra,1.0,Poor,259,PM2.5
2019-11-23,Kurukshetra,1.0,Moderate,198,PM2.5
2019-11-24,Kurukshetra,1.0,Poor,204,PM2.5
2019-11-25,Kurukshetra,1.0,Moderate,111,PM2.5
2019-11-26,Kurukshetra,1.0,Moderate,117,PM2.5
2019-11-27,Kurukshetra,1.0,Satisfactory,59,PM2.5
2019-11-28,Kurukshetra,1.0,Moderate,118,PM2.5
2019-11-29,Kurukshetra,1.0,Satisfactory,69,PM10
2019-11-30,Kurukshetra,1.0,Moderate,145,PM2.5
2019-12-01,Kurukshetra,1.0,Moderate,189,PM2.5
2019-12-02,Kurukshetra,1.0,Poor,219,PM2.5
2019-12-03,Kurukshetra,1.0,Poor,279,PM2.5
2019-12-04,Kurukshetra,1.0,Very Poor,322,PM2.5
2019-12-05,Kurukshetra,1.0,Very Poor,348,PM2.5
2019-12-06,Kurukshetra,1.0,Poor,293,PM2.5
2019-12-07,Kurukshetra,1.0,Poor,268,PM2.5
2019-12-08,Kurukshetra,1.0,Poor,288,PM2.5
2019-12-09,Kurukshetra,1.0,Very Poor,302,PM2.5
2019-12-10,Kurukshetra,1.0,Very Poor,352,PM2.5
2019-12-11,Kurukshetra,1.0,Very Poor,360,PM2.5
2019-12-12,Kurukshetra,1.0,Very Poor,372,PM2.5
2019-12-13,Kurukshetra,1.0,Moderate,155,PM2.5
2019-12-14,Kurukshetra,1.0,Good,33,PM2.5
2019-12-16,Kurukshetra,1.0,Moderate,119,PM2.5
2019-12-17,Kurukshetra,1.0,Poor,226,PM2.5
2019-12-18,Kurukshetra,1.0,Poor,210,PM2.5
2019-12-19,Kurukshetra,1.0,Poor,229,PM2.5
2019-12-20,Kurukshetra,1.0,Very Poor,313,PM2.5
2019-12-21,Kurukshetra,1.0,Poor,285,PM2.5
2019-12-22,Kurukshetra,1.0,Poor,274,PM2.5
2019-12-23,Kurukshetra,1.0,Poor,259,PM2.5
2019-12-25,Kurukshetra,1.0,Poor,251,PM2.5
2019-12-26,Kurukshetra,1.0,Poor,299,PM2.5
2019-12-27,Kurukshetra,1.0,Very Poor,324,PM2.5
2019-12-28,Kurukshetra,1.0,Very Poor,301,PM2.5
2019-12-29,Kurukshetra,1.0,Poor,234,PM2.5
2019-12-30,Kurukshetra,1.0,Moderate,165,PM2.5
2019-12-31,Kurukshetra,1.0,Poor,273,PM2.5
2020-01-01,Kurukshetra,1.0,Very Poor,301,PM2.5
2020-01-02,Kurukshetra,1.0,Poor,251,PM2.5
2020-01-03,Kurukshetra,1.0,Poor,218,PM2.5
2020-01-04,Kurukshetra,1.0,Poor,245,PM2.5
2020-01-05,Kurukshetra,1.0,Poor,260,PM2.5
2020-01-06,Kurukshetra,1.0,Moderate,156,PM2.5
2020-01-07,Kurukshetra,1.0,Satisfactory,68,PM2.5
2020-01-08,Kurukshetra,1.0,Satisfactory,73,PM2.5
2020-01-09,Kurukshetra,1.0,Satisfactory,70,PM2.5
2020-01-10,Kurukshetra,1.0,Moderate,124,PM2.5
2020-01-11,Kurukshetra,1.0,Moderate,165,PM2.5
2020-01-12,Kurukshetra,1.0,Poor,230,PM2.5
2020-01-13,Kurukshetra,1.0,Poor,278,PM2.5
2020-01-14,Kurukshetra,1.0,Poor,205,PM2.5
2020-01-15,Kurukshetra,1.0,Moderate,132,PM2.5
2020-01-16,Kurukshetra,1.0,Moderate,116,PM2.5
2020-01-17,Kurukshetra,1.0,Moderate,174,PM2.5
2020-01-18,Kurukshetra,1.0,Satisfactory,83,PM2.5
2020-01-19,Kurukshetra,1.0,Moderate,117,PM2.5
2020-01-20,Kurukshetra,1.0,Poor,202,PM2.5
2020-01-21,Kurukshetra,1.0,Poor,259,PM2.5
2020-01-22,Kurukshetra,1.0,Moderate,174,PM2.5
2020-01-23,Kurukshetra,1.0,Satisfactory,88,PM10
2020-01-24,Kurukshetra,1.0,Satisfactory,99,PM10
2020-01-25,Kurukshetra,1.0,Moderate,164,PM2.5
2020-01-26,Kurukshetra,1.0,Poor,285,PM2.5
2020-01-27,Kurukshetra,1.0,Poor,201,PM2.5
2020-01-28,Kurukshetra,1.0,Poor,256,PM2.5
2020-01-29,Kurukshetra,1.0,Satisfactory,52,PM2.5
2020-01-30,Kurukshetra,1.0,Satisfactory,83,PM2.5
2020-01-31,Kurukshetra,1.0,Satisfactory,85,PM2.5
2020-02-01,Kurukshetra,1.0,Moderate,121,PM2.5
2020-02-02,Kurukshetra,1.0,Moderate,127,PM2.5
2020-02-03,Kurukshetra,1.0,Moderate,157,PM2.5
2020-02-04,Kurukshetra,1.0,Poor,216,PM2.5
2020-02-05,Kurukshetra,1.0,Moderate,193,PM2.5
2020-02-06,Kurukshetra,1.0,Moderate,107,PM2.5
2020-02-07,Kurukshetra,1.0,Poor,209,PM2.5
2020-02-08,Kurukshetra,1.0,Moderate,184,PM2.5
2020-02-09,Kurukshetra,1.0,Poor,202,PM2.5
2020-02-10,Kurukshetra,1.0,Moderate,196,PM2.5
2020-02-11,Kurukshetra,1.0,Poor,205,PM2.5
2020-02-12,Kurukshetra,1.0,Poor,203,PM2.5
2020-02-13,Kurukshetra,1.0,Moderate,103,PM10
2020-02-14,Kurukshetra,1.0,Moderate,108,PM10
2020-02-15,Kurukshetra,1.0,Moderate,104,PM10
2020-02-16,Kurukshetra,1.0,Moderate,132,PM2.5
2020-02-17,Kurukshetra,1.0,Moderate,134,PM2.5
2020-02-18,Kurukshetra,1.0,Moderate,115,PM10
2020-02-19,Kurukshetra,1.0,Moderate,182,PM2.5
2020-02-20,Kurukshetra,1.0,Poor,238,PM2.5
2020-02-21,Kurukshetra,1.0,Satisfactory,75,PM2.5
2020-02-22,Kurukshetra,1.0,Satisfactory,75,PM2.5
2020-02-23,Kurukshetra,1.0,Satisfactory,100,PM2.5
2020-02-24,Kurukshetra,1.0,Satisfactory,80,PM10
2020-02-25,Kurukshetra,1.0,Moderate,109,PM2.5
2020-02-26,Kurukshetra,1.0,Moderate,143,PM2.5
2020-02-27,Kurukshetra,1.0,Poor,234,PM2.5
2020-02-28,Kurukshetra,1.0,Moderate,200,PM2.5
2020-02-29,Kurukshetra,1.0,Moderate,152,PM2.5
2020-03-01,Kurukshetra,1.0,Satisfactory,60,PM10
2020-03-02,Kurukshetra,1.0,Satisfactory,75,PM10
2020-03-03,Kurukshetra,1.0,Moderate,109,PM10
2020-03-04,Kurukshetra,1.0,Moderate,124,PM10
2020-03-05,Kurukshetra,1.0,Satisfactory,70,PM10
2020-03-06,Kurukshetra,1.0,Good,50,PM10
2020-03-07,Kurukshetra,1.0,Good,27,NO2
2020-03-08,Kurukshetra,1.0,Moderate,144,PM2.5
2020-03-10,Kurukshetra,1.0,Satisfactory,100,PM10
2020-03-11,Kurukshetra,1.0,Satisfactory,90,PM2.5
2020-03-12,Kurukshetra,1.0,Satisfactory,65,PM2.5
2020-03-13,Kurukshetra,1.0,Satisfactory,83,PM10
2020-03-14,Kurukshetra,1.0,Good,47,PM2.5
2020-03-15,Kurukshetra,1.0,Good,48,PM2.5
2020-03-16,Kurukshetra,1.0,Satisfactory,84,PM10
2020-03-17,Kurukshetra,1.0,Satisfactory,100,PM10
2020-03-18,Kurukshetra,1.0,Moderate,102,PM10
2020-03-19,Kurukshetra,1.0,Moderate,106,PM2.5
2020-03-20,Kurukshetra,1.0,Moderate,110,PM10
2020-03-21,Kurukshetra,1.0,Moderate,148,PM2.5
2020-03-23,Kurukshetra,1.0,Satisfactory,67,PM2.5
2020-03-24,Kurukshetra,1.0,Satisfactory,82,PM10
2020-03-25,Kurukshetra,1.0,Satisfactory,67,PM10
2020-03-26,Kurukshetra,1.0,Satisfactory,52,PM10
2020-03-27,Kurukshetra,1.0,Good,48,PM2.5
2020-03-28,Kurukshetra,1.0,Good,34,O3
2020-03-29,Kurukshetra,1.0,Good,44,O3
2020-03-30,Kurukshetra,1.0,Good,45,O3
2020-03-31,Kurukshetra,1.0,Good,43,PM2.5
2020-04-01,Kurukshetra,1.0,Satisfactory,51,PM10
2020-04-02,Kurukshetra,1.0,Good,48,O3
2020-04-03,Kurukshetra,1.0,Satisfactory,58,O3
2020-04-04,Kurukshetra,1.0,Satisfactory,60,O3
2020-04-05,Kurukshetra,1.0,Satisfactory,55,O3
2020-04-06,Kurukshetra,1.0,Satisfactory,76,PM10
2020-04-07,Kurukshetra,1.0,Satisfactory,66,PM10
2020-04-08,Kurukshetra,1.0,Satisfactory,58,O3
2020-04-09,Kurukshetra,1.0,Satisfactory,56,PM10
2020-04-10,Kurukshetra,1.0,Satisfactory,59,PM10
2020-04-11,Kurukshetra,1.0,Satisfactory,69,PM10
2020-04-12,Kurukshetra,1.0,Satisfactory,64,PM10
2020-04-13,Kurukshetra,1.0,Satisfactory,66,O3
2020-04-14,Kurukshetra,1.0,Satisfactory,80,PM10
2020-04-15,Kurukshetra,1.0,Moderate,111,PM10
2020-04-16,Kurukshetra,1.0,Moderate,139,PM10
2020-04-17,Kurukshetra,1.0,Satisfactory,91,PM10
2020-04-18,Kurukshetra,1.0,Satisfactory,59,PM10
2020-04-19,Kurukshetra,1.0,Satisfactory,56,O3
2020-04-20,Kurukshetra,1.0,Satisfactory,96,PM10
2020-04-21,Kurukshetra,1.0,Satisfactory,56,O3
2020-04-22,Kurukshetra,1.0,Satisfactory,68,O3
2020-04-23,Kurukshetra,1.0,Moderate,111,PM10
2020-04-24,Kurukshetra,1.0,Moderate,150,PM10
2020-04-25,Kurukshetra,1.0,Moderate,145,PM10
2020-04-26,Kurukshetra,1.0,Moderate,107,PM10
2020-04-27,Kurukshetra,1.0,Good,45,O3
2020-04-28,Kurukshetra,1.0,Satisfactory,60,O3
2020-04-29,Kurukshetra,1.0,Moderate,107,PM10
2020-04-30,Kurukshetra,1.0,Moderate,165,PM2.5
2020-05-01,Kurukshetra,1.0,Moderate,116,PM10
2020-05-02,Kurukshetra,1.0,Moderate,120,PM10
2020-05-03,Kurukshetra,1.0,Moderate,119,PM10
2020-05-04,Kurukshetra,1.0,Satisfactory,54,O3
2020-05-05,Kurukshetra,1.0,Satisfactory,91,PM2.5
2020-05-06,Kurukshetra,1.0,Moderate,108,PM10
2020-05-07,Kurukshetra,1.0,Satisfactory,83,PM10
2020-05-08,Kurukshetra,1.0,Moderate,125,PM10
2020-05-09,Kurukshetra,1.0,Poor,215,PM2.5
2020-05-10,Kurukshetra,1.0,Moderate,197,PM2.5
2020-05-11,Kurukshetra,1.0,Satisfactory,65,O3
2020-05-12,Kurukshetra,1.0,Satisfactory,67,O3
2020-05-13,Kurukshetra,1.0,Moderate,132,PM10
2020-05-14,Kurukshetra,1.0,Poor,206,PM2.5
2020-05-15,Kurukshetra,1.0,Satisfactory,87,PM10
2020-05-16,Kurukshetra,1.0,Satisfactory,89,PM10
2020-05-17,Kurukshetra,1.0,Moderate,135,PM2.5
2020-05-18,Kurukshetra,1.0,Poor,204,PM2.5
2020-05-19,Kurukshetra,1.0,Moderate,191,PM2.5
2020-05-20,Kurukshetra,1.0,Moderate,109,PM10
2020-05-21,Kurukshetra,1.0,Moderate,145,PM10
2020-05-22,Kurukshetra,1.0,Poor,203,PM2.5
2020-05-23,Kurukshetra,1.0,Poor,216,PM2.5
2020-05-24,Kurukshetra,1.0,Moderate,134,PM10
2020-05-25,Kurukshetra,1.0,Moderate,135,PM10
2020-05-26,Kurukshetra,1.0,Moderate,126,PM10
2020-05-27,Kurukshetra,1.0,Moderate,106,PM10
2020-05-28,Kurukshetra,1.0,Moderate,114,PM10
2020-05-30,Kurukshetra,1.0,Satisfactory,69,PM10
2020-05-31,Kurukshetra,1.0,Satisfactory,61,PM2.5
2020-06-01,Kurukshetra,1.0,Good,30,PM2.5
2020-06-02,Kurukshetra,1.0,Satisfactory,72,PM10
2020-06-03,Kurukshetra,1.0,Satisfactory,89,PM10
2020-06-04,Kurukshetra,1.0,Satisfactory,94,PM10
2020-06-05,Kurukshetra,1.0,Satisfactory,66,PM2.5
2020-06-06,Kurukshetra,1.0,Satisfactory,63,PM2.5
2020-06-07,Kurukshetra,1.0,Satisfactory,61,PM2.5
2020-06-08,Kurukshetra,1.0,Satisfactory,54,PM10
2020-06-09,Kurukshetra,1.0,Satisfactory,94,PM10
2020-06-10,Kurukshetra,1.0,Moderate,111,PM10
2020-06-11,Kurukshetra,1.0,Moderate,118,PM10
2020-06-12,Kurukshetra,1.0,Moderate,121,PM10
2020-06-13,Kurukshetra,1.0,Moderate,153,PM2.5
2020-06-14,Kurukshetra,1.0,Moderate,104,PM10
2020-06-15,Kurukshetra,1.0,Moderate,110,PM2.5
2020-06-16,Kurukshetra,1.0,Satisfactory,88,PM10
2020-06-17,Kurukshetra,1.0,Moderate,102,PM10
2020-06-18,Kurukshetra,1.0,Satisfactory,80,PM10
2020-06-19,Kurukshetra,1.0,Satisfactory,99,PM10
2020-06-20,Kurukshetra,1.0,Moderate,120,PM10
2020-06-21,Kurukshetra,1.0,Moderate,116,PM10
2020-06-22,Kurukshetra,1.0,Satisfactory,65,PM10
2020-06-23,Kurukshetra,1.0,Satisfactory,79,PM10